Hourly Weather Rudniki

Today, 11 April, Sunday

Time Temperature Precipitation Wind Pressure Humidity
00:00 +8°C° 0.4 mm 1 mps 748 mmHg 90%
01:00 +8°C° 0.4 mm 1 mps 748 mmHg 92%
02:00 +7°C° 0.4 mm 1 mps 748 mmHg 93%
03:00 +7°C° 0.3 mm 1 mps 748 mmHg 93%
04:00 +7°C° 0.3 mm 1 mps 749 mmHg 93%
05:00 +6°C° 0.3 mm 2 mps 749 mmHg 92%
06:00 +7°C° 0 mm 2 mps 749 mmHg 89%
07:00 +7°C° 0 mm 2 mps 749 mmHg 86%
08:00 +8°C° 0 mm 2 mps 750 mmHg 84%
09:00 +9°C° 0 mm 2 mps 750 mmHg 78%
10:00 +10°C° 0 mm 3 mps 750 mmHg 73%
11:00 +11°C° 0 mm 3 mps 751 mmHg 68%
12:00 +12°C° 0 mm 4 mps 751 mmHg 63%
13:00 +13°C° 0 mm 4 mps 751 mmHg 58%
14:00 +15°C° 0 mm 4 mps 751 mmHg 53%
15:00 +15°C° 0 mm 4 mps 751 mmHg 54%
16:00 +14°C° 0 mm 4 mps 751 mmHg 55%
17:00 +14°C° 0 mm 4 mps 751 mmHg 55%
18:00 +13°C° 0 mm 3 mps 751 mmHg 61%
19:00 +11°C° 0 mm 3 mps 752 mmHg 67%
20:00 +10°C° 0 mm 3 mps 752 mmHg 73%
21:00 +9°C° 0 mm 3 mps 752 mmHg 73%
22:00 +9°C° 0 mm 3 mps 752 mmHg 74%
23:00 +8°C° 0 mm 3 mps 752 mmHg 74%

Tomorrow, 12 April, Monday

Time Temperature Precipitation Wind Pressure Humidity
00:00 +8°C° 0 mm 3 mps 753 mmHg 75%
01:00 +7°C° 0 mm 3 mps 753 mmHg 76%
02:00 +5°C° 0 mm 3 mps 753 mmHg 77%
03:00 +5°C° 0 mm 3 mps 752 mmHg 76%
04:00 +5°C° 0 mm 3 mps 752 mmHg 76%
05:00 +4°C° 0 mm 3 mps 752 mmHg 76%
06:00 +5°C° 0 mm 4 mps 752 mmHg 71%
07:00 +6°C° 0 mm 4 mps 752 mmHg 67%
08:00 +7°C° 0 mm 4 mps 752 mmHg 63%
09:00 +9°C° 0 mm 5 mps 752 mmHg 57%
10:00 +12°C° 0 mm 5 mps 752 mmHg 50%
11:00 +13°C° 0 mm 6 mps 751 mmHg 44%
12:00 +14°C° 0 mm 5 mps 751 mmHg 41%
13:00 +14°C° 0 mm 5 mps 750 mmHg 39%
14:00 +15°C° 0 mm 5 mps 750 mmHg 36%
15:00 +15°C° 0 mm 5 mps 749 mmHg 38%
16:00 +15°C° 0 mm 4 mps 749 mmHg 40%
17:00 +14°C° 0 mm 3 mps 749 mmHg 42%
18:00 +13°C° 0 mm 3 mps 749 mmHg 49%
19:00 +11°C° 0 mm 3 mps 749 mmHg 55%
20:00 +9°C° 0 mm 2 mps 749 mmHg 62%
21:00 +9°C° 0 mm 2 mps 748 mmHg 63%
22:00 +8°C° 0 mm 2 mps 748 mmHg 65%
23:00 +8°C° 0 mm 2 mps 748 mmHg 66%

Day after tomorrow, 13 April, Tuesday

Time Temperature Precipitation Wind Pressure Humidity
00:00 +7°C° 0 mm 2 mps 748 mmHg 69%
01:00 +7°C° 0 mm 2 mps 748 mmHg 71%
02:00 +6°C° 0 mm 2 mps 748 mmHg 74%
03:00 +6°C° 0 mm 2 mps 748 mmHg 76%
04:00 +6°C° 0 mm 2 mps 748 mmHg 78%
05:00 +5°C° 0 mm 2 mps 748 mmHg 79%
06:00 +7°C° 0 mm 2 mps 747 mmHg 74%
07:00 +8°C° 0 mm 3 mps 747 mmHg 69%
08:00 +10°C° 0 mm 3 mps 747 mmHg 63%
09:00 +11°C° 0 mm 3 mps 747 mmHg 60%
10:00 +12°C° 0 mm 3 mps 748 mmHg 56%
11:00 +13°C° 0 mm 3 mps 748 mmHg 52%
12:00 +15°C° 0 mm 2 mps 747 mmHg 52%
13:00 +15°C° 0 mm 2 mps 747 mmHg 52%
14:00 +15°C° 0 mm 2 mps 747 mmHg 52%
15:00 +14°C° 0 mm 2 mps 747 mmHg 59%
16:00 +12°C° 0 mm 3 mps 747 mmHg 67%
17:00 +11°C° 0 mm 3 mps 747 mmHg 74%
18:00 +10°C° 0 mm 3 mps 747 mmHg 78%
19:00 +8°C° 0 mm 4 mps 748 mmHg 82%
20:00 +6°C° 0 mm 4 mps 748 mmHg 86%
21:00 +6°C° 0 mm 4 mps 748 mmHg 87%
22:00 +5°C° 0 mm 4 mps 748 mmHg 88%
23:00 +5°C° 0 mm 4 mps 748 mmHg 88%

14 April, Wednesday

Time Temperature Precipitation Wind Pressure Humidity
00:00 +5°C° 0 mm 4 mps 747 mmHg 89%
01:00 +5°C° 0 mm 4 mps 747 mmHg 89%
02:00 +4°C° 0 mm 4 mps 747 mmHg 90%
03:00 +4°C° 0 mm 4 mps 747 mmHg 89%
04:00 +4°C° 0 mm 4 mps 747 mmHg 88%
05:00 +4°C° 0 mm 4 mps 747 mmHg 87%
06:00 +3°C° 0 mm 5 mps 747 mmHg 85%
07:00 +5°C° 0 mm 5 mps 747 mmHg 83%
08:00 +5°C° 0 mm 5 mps 747 mmHg 81%
09:00 +5°C° 0.2 mm 5 mps 747 mmHg 82%
10:00 +6°C° 0.2 mm 5 mps 747 mmHg 83%
11:00 +6°C° 0.2 mm 5 mps 747 mmHg 84%
12:00 +6°C° 0.4 mm 5 mps 746 mmHg 87%
13:00 +5°C° 0.4 mm 5 mps 746 mmHg 89%
14:00 +4°C° 0.4 mm 6 mps 746 mmHg 91%
15:00 +5°C° 0.3 mm 5 mps 746 mmHg 91%
16:00 +5°C° 0.3 mm 5 mps 746 mmHg 91%
17:00 +3°C° 0.3 mm 5 mps 746 mmHg 92%
18:00 +3°C° 0.2 mm 5 mps 746 mmHg 92%
19:00 +3°C° 0.2 mm 5 mps 747 mmHg 93%
20:00 +2°C° 0.2 mm 5 mps 747 mmHg 93%
21:00 +2°C° 0.1 mm 5 mps 747 mmHg 93%
22:00 +3°C° 0.1 mm 4 mps 747 mmHg 94%
23:00 +3°C° 0.1 mm 4 mps 747 mmHg 94%

15 April, Thursday

Time Temperature Precipitation Wind Pressure Humidity
00:00 +3°C° 0.1 mm 4 mps 747 mmHg 94%
01:00 +3°C° 0.1 mm 4 mps 747 mmHg 94%
02:00 +3°C° 0.1 mm 4 mps 747 mmHg 95%
03:00 +3°C° 0.3 mm 4 mps 747 mmHg 95%
04:00 +3°C° 0.3 mm 4 mps 747 mmHg 95%
05:00 +3°C° 0.3 mm 4 mps 747 mmHg 95%
06:00 +3°C° 0.1 mm 4 mps 747 mmHg 94%
07:00 +3°C° 0.1 mm 4 mps 747 mmHg 94%
08:00 +3°C° 0.1 mm 4 mps 747 mmHg 93%
09:00 +3°C° 0.1 mm 4 mps 747 mmHg 92%
10:00 +2°C° 0.1 mm 5 mps 748 mmHg 92%
11:00 +2°C° 0.1 mm 5 mps 748 mmHg 91%
12:00 +2°C° 0.1 mm 5 mps 748 mmHg 91%
13:00 +2°C° 0.1 mm 5 mps 748 mmHg 91%
14:00 +2°C° 0.1 mm 5 mps 748 mmHg 90%
15:00 +2°C° 0.2 mm 5 mps 748 mmHg 89%
16:00 +2°C° 0.2 mm 6 mps 748 mmHg 88%
17:00 +2°C° 0.2 mm 6 mps 748 mmHg 87%
18:00 +2°C° 0.5 mm 6 mps 748 mmHg 87%
19:00 +2°C° 0.5 mm 7 mps 748 mmHg 86%
20:00 +2°C° 0.5 mm 7 mps 748 mmHg 86%
21:00 +2°C° 0.5 mm 7 mps 749 mmHg 85%
22:00 +2°C° 0.5 mm 7 mps 749 mmHg 84%
23:00 +3°C° 0.5 mm 6 mps 749 mmHg 82%

16 April, Friday

Time Temperature Precipitation Wind Pressure Humidity
00:00 +2°C° 0 mm 6 mps 749 mmHg 80%
01:00 +2°C° 0 mm 6 mps 749 mmHg 78%
02:00 +2°C° 0 mm 6 mps 749 mmHg 76%
03:00 +1°C° 0 mm 6 mps 750 mmHg 77%
04:00 -1°C° 0 mm 6 mps 750 mmHg 78%
05:00 -2°C° 0 mm 6 mps 750 mmHg 78%
06:00 -1°C° 0 mm 6 mps 751 mmHg 75%
07:00 +1°C° 0 mm 6 mps 751 mmHg 72%
08:00 +2°C° 0 mm 7 mps 752 mmHg 69%
09:00 +3°C° 0 mm 7 mps 752 mmHg 63%
10:00 +4°C° 0 mm 7 mps 752 mmHg 56%
11:00 +6°C° 0 mm 7 mps 753 mmHg 49%
12:00 +6°C° 0 mm 7 mps 753 mmHg 47%
13:00 +8°C° 0 mm 7 mps 753 mmHg 44%
14:00 +9°C° 0 mm 7 mps 753 mmHg 42%
15:00 +9°C° 0 mm 6 mps 753 mmHg 43%
16:00 +8°C° 0 mm 6 mps 754 mmHg 45%
17:00 +8°C° 0 mm 5 mps 754 mmHg 47%
18:00 +7°C° 0 mm 5 mps 754 mmHg 50%
19:00 +5°C° 0 mm 4 mps 755 mmHg 53%
20:00 +4°C° 0 mm 4 mps 755 mmHg 56%
21:00 +3°C° 0 mm 4 mps 756 mmHg 59%
22:00 +2°C° 0 mm 3 mps 756 mmHg 63%
23:00 +1°C° 0 mm 3 mps 757 mmHg 66%
Show more